• Em Portugal
  • Lista de países
  • Para 7 dias
  • Temperatura da água
  • Mapas de satélite
  • Mapa do tempo
  • Widgets de tempo
  • user-avatar
    Iniciar Sessão

    Previsão horária em Laczna

    Hoje, 18 Julho, Quarta-feira

    Tempo Temperatura Precipitação Vento Pressão Humidade
    00:00 +17°C° 0,1 mm 4 m/s 725 mmHg 94%
    01:00 +17°C° 0 mm 4 m/s 724 mmHg 94%
    02:00 +17°C° 0,1 mm 4 m/s 724 mmHg 94%
    03:00 +17°C° 0,1 mm 4 m/s 724 mmHg 94%
    04:00 +16°C° 0,1 mm 5 m/s 724 mmHg 94%
    05:00 +16°C° 0,5 mm 5 m/s 724 mmHg 93%
    06:00 +16°C° 0,5 mm 6 m/s 724 mmHg 93%
    07:00 +16°C° 0,5 mm 6 m/s 725 mmHg 92%
    08:00 +17°C° 1,2 mm 6 m/s 725 mmHg 92%
    09:00 +17°C° 1,2 mm 7 m/s 725 mmHg 92%
    10:00 +17°C° 1,2 mm 7 m/s 725 mmHg 92%
    11:00 +17°C° 0,8 mm 7 m/s 725 mmHg 92%
    12:00 +17°C° 0,8 mm 7 m/s 726 mmHg 92%
    13:00 +17°C° 0,8 mm 7 m/s 726 mmHg 92%
    14:00 +17°C° 0,4 mm 6 m/s 726 mmHg 91%
    15:00 +19°C° 0,4 mm 6 m/s 726 mmHg 90%
    16:00 +19°C° 0,4 mm 6 m/s 726 mmHg 90%
    17:00 +19°C° 0,3 mm 5 m/s 727 mmHg 90%
    18:00 +19°C° 0,3 mm 4 m/s 727 mmHg 91%
    19:00 +18°C° 0,3 mm 4 m/s 727 mmHg 91%
    20:00 +18°C° 0,2 mm 4 m/s 727 mmHg 92%
    21:00 +18°C° 0,2 mm 3 m/s 728 mmHg 93%
    22:00 +17°C° 0,2 mm 3 m/s 728 mmHg 93%
    23:00 +17°C° 0,1 mm 3 m/s 728 mmHg 94%

    Amanhã, 19 Julho, Quinta-feira

    Tempo Temperatura Precipitação Vento Pressão Humidade
    00:00 +17°C° 0,1 mm 3 m/s 728 mmHg 94%
    01:00 +17°C° 0,1 mm 3 m/s 728 mmHg 94%
    02:00 +17°C° 0 mm 3 m/s 728 mmHg 94%
    03:00 +16°C° 0 mm 3 m/s 728 mmHg 94%
    04:00 +16°C° 0 mm 3 m/s 728 mmHg 95%
    05:00 +17°C° 0 mm 4 m/s 728 mmHg 92%
    06:00 +18°C° 0 mm 4 m/s 728 mmHg 90%
    07:00 +17°C° 0 mm 5 m/s 729 mmHg 88%
    08:00 +19°C° 0,1 mm 5 m/s 729 mmHg 85%
    09:00 +20°C° 0,1 mm 5 m/s 729 mmHg 82%
    10:00 +20°C° 0,1 mm 5 m/s 729 mmHg 80%
    11:00 +20°C° 0,3 mm 5 m/s 729 mmHg 81%
    12:00 +20°C° 0,3 mm 4 m/s 729 mmHg 81%
    13:00 +20°C° 0,3 mm 4 m/s 729 mmHg 82%
    14:00 +20°C° 0,1 mm 4 m/s 729 mmHg 81%
    15:00 +21°C° 0,1 mm 4 m/s 729 mmHg 81%
    16:00 +21°C° 0,1 mm 4 m/s 729 mmHg 80%
    17:00 +21°C° 0,1 mm 4 m/s 729 mmHg 82%
    18:00 +20°C° 0,1 mm 3 m/s 729 mmHg 84%
    19:00 +20°C° 0,1 mm 3 m/s 729 mmHg 86%
    20:00 +19°C° 0 mm 2 m/s 729 mmHg 89%
    21:00 +18°C° 0 mm 2 m/s 729 mmHg 92%
    22:00 +16°C° 0 mm 2 m/s 729 mmHg 94%
    23:00 +16°C° 0 mm 2 m/s 729 mmHg 94%

    Depois de amanhã, 20 Julho, Sexta-feira

    Tempo Temperatura Precipitação Vento Pressão Humidade
    00:00 +16°C° 0 mm 2 m/s 729 mmHg 95%
    01:00 +16°C° 0 mm 2 m/s 729 mmHg 95%
    02:00 +16°C° 0 mm 2 m/s 729 mmHg 95%
    03:00 +16°C° 0 mm 2 m/s 729 mmHg 95%
    04:00 +16°C° 0 mm 2 m/s 729 mmHg 96%
    05:00 +17°C° 0 mm 2 m/s 729 mmHg 92%
    06:00 +17°C° 0 mm 3 m/s 729 mmHg 89%
    07:00 +18°C° 0 mm 3 m/s 729 mmHg 86%
    08:00 +19°C° 0 mm 3 m/s 730 mmHg 81%
    09:00 +20°C° 0 mm 3 m/s 730 mmHg 75%
    10:00 +22°C° 0 mm 3 m/s 730 mmHg 70%
    11:00 +24°C° 0,1 mm 3 m/s 730 mmHg 67%
    12:00 +24°C° 0,1 mm 3 m/s 729 mmHg 64%
    13:00 +25°C° 0,1 mm 3 m/s 729 mmHg 61%
    14:00 +25°C° 0,1 mm 2 m/s 729 mmHg 60%
    15:00 +26°C° 0,1 mm 2 m/s 729 mmHg 58%
    16:00 +26°C° 0,1 mm 2 m/s 728 mmHg 57%
    17:00 +25°C° 0 mm 2 m/s 728 mmHg 62%
    18:00 +23°C° 0 mm 2 m/s 728 mmHg 68%
    19:00 +22°C° 0 mm 1 m/s 728 mmHg 73%
    20:00 +21°C° 0 mm 1 m/s 728 mmHg 77%
    21:00 +19°C° 0 mm 1 m/s 728 mmHg 80%
    22:00 +18°C° 0 mm 1 m/s 728 mmHg 84%
    23:00 +18°C° 0 mm 1 m/s 727 mmHg 85%

    21 Julho, Sábado

    Tempo Temperatura Precipitação Vento Pressão Humidade
    00:00 +16°C° 0 mm 1 m/s 727 mmHg 86%
    01:00 +16°C° 0 mm 1 m/s 727 mmHg 87%
    02:00 +16°C° 0 mm 1 m/s 727 mmHg 87%
    03:00 +15°C° 0 mm 1 m/s 727 mmHg 87%
    04:00 +15°C° 0 mm 1 m/s 726 mmHg 87%
    05:00 +18°C° 0 mm 1 m/s 726 mmHg 83%
    06:00 +19°C° 0 mm 1 m/s 727 mmHg 78%
    07:00 +21°C° 0 mm 1 m/s 727 mmHg 73%
    08:00 +22°C° 0 mm 1 m/s 727 mmHg 68%
    09:00 +24°C° 0 mm 1 m/s 727 mmHg 63%
    10:00 +25°C° 0 mm 2 m/s 727 mmHg 58%
    11:00 +26°C° 0 mm 2 m/s 727 mmHg 55%
    12:00 +26°C° 0 mm 2 m/s 726 mmHg 52%
    13:00 +27°C° 0 mm 2 m/s 726 mmHg 50%
    14:00 +27°C° 0 mm 1 m/s 726 mmHg 50%
    15:00 +27°C° 0 mm 1 m/s 726 mmHg 51%
    16:00 +27°C° 0 mm 1 m/s 726 mmHg 52%
    17:00 +25°C° 0,1 mm 1 m/s 726 mmHg 59%
    18:00 +24°C° 0,1 mm 1 m/s 726 mmHg 66%
    19:00 +23°C° 0,1 mm 2 m/s 725 mmHg 73%
    20:00 +22°C° 0 mm 1 m/s 725 mmHg 75%
    21:00 +20°C° 0 mm 1 m/s 725 mmHg 77%
    22:00 +19°C° 0 mm 1 m/s 725 mmHg 79%
    23:00 +19°C° 0,1 mm 1 m/s 725 mmHg 80%

    22 Julho, Domingo

    Tempo Temperatura Precipitação Vento Pressão Humidade
    00:00 +18°C° 0,1 mm 1 m/s 725 mmHg 81%
    01:00 +18°C° 0,1 mm 1 m/s 725 mmHg 82%
    02:00 +18°C° 0,1 mm 1 m/s 725 mmHg 82%
    03:00 +16°C° 0,1 mm 1 m/s 725 mmHg 83%
    04:00 +15°C° 0,1 mm 0 m/s 725 mmHg 83%
    05:00 +18°C° 0 mm 1 m/s 725 mmHg 80%
    06:00 +19°C° 0 mm 1 m/s 725 mmHg 77%
    07:00 +21°C° 0 mm 1 m/s 725 mmHg 74%
    08:00 +21°C° 0 mm 1 m/s 726 mmHg 71%
    09:00 +21°C° 0 mm 2 m/s 726 mmHg 68%
    10:00 +23°C° 0 mm 2 m/s 726 mmHg 65%
    11:00 +24°C° 0 mm 3 m/s 726 mmHg 62%
    12:00 +25°C° 0 mm 3 m/s 726 mmHg 60%
    13:00 +26°C° 0 mm 4 m/s 726 mmHg 57%
    14:00 +26°C° 0,3 mm 4 m/s 726 mmHg 58%
    15:00 +25°C° 0,3 mm 4 m/s 726 mmHg 59%
    16:00 +25°C° 0,3 mm 4 m/s 726 mmHg 61%
    17:00 +23°C° 0,1 mm 4 m/s 726 mmHg 64%
    18:00 +22°C° 0,1 mm 3 m/s 726 mmHg 68%
    19:00 +20°C° 0,1 mm 3 m/s 726 mmHg 71%
    20:00 +19°C° 0 mm 3 m/s 727 mmHg 73%
    21:00 +18°C° 0 mm 2 m/s 727 mmHg 74%
    22:00 +17°C° 0 mm 2 m/s 727 mmHg 76%
    23:00 +17°C° 0 mm 2 m/s 727 mmHg 77%

    23 Julho, Segunda-feira

    Tempo Temperatura Precipitação Vento Pressão Humidade
    00:00 +16°C° 0 mm 2 m/s 727 mmHg 78%
    01:00 +16°C° 0 mm 2 m/s 728 mmHg 79%
    02:00 +15°C° 0 mm 2 m/s 728 mmHg 81%
    03:00 +15°C° 0 mm 2 m/s 728 mmHg 84%
    04:00 +15°C° 0 mm 2 m/s 728 mmHg 86%
    05:00 +16°C° 0 mm 2 m/s 729 mmHg 83%
    06:00 +18°C° 0 mm 2 m/s 729 mmHg 80%
    07:00 +19°C° 0 mm 2 m/s 729 mmHg 77%
    08:00 +20°C° 0 mm 3 m/s 729 mmHg 72%
    09:00 +22°C° 0 mm 3 m/s 730 mmHg 67%
    10:00 +24°C° 0 mm 3 m/s 730 mmHg 62%
    11:00 +23°C° 0 mm 4 m/s 730 mmHg 60%
    12:00 +25°C° 0 mm 4 m/s 729 mmHg 58%
    13:00 +26°C° 0 mm 4 m/s 729 mmHg 55%
    14:00 +25°C° 0 mm 4 m/s 729 mmHg 55%
    15:00 +25°C° 0 mm 4 m/s 729 mmHg 55%
    16:00 +25°C° 0 mm 4 m/s 729 mmHg 55%
    17:00 +24°C° 0 mm 3 m/s 729 mmHg 61%
    18:00 +22°C° 0 mm 3 m/s 729 mmHg 66%
    19:00 +21°C° 0 mm 2 m/s 729 mmHg 72%
    20:00 +19°C° 0 mm 2 m/s 729 mmHg 75%
    21:00 +19°C° 0 mm 1 m/s 729 mmHg 78%
    22:00 +18°C° 0 mm 1 m/s 729 mmHg 81%
    23:00 +16°C° 0 mm 1 m/s 729 mmHg 82%
    Mostrar mais